FW1574 Weather Reports


Display with metric or nautical units.
time (UTC)temp
F
wind
direction
speed
MPH
gust
MPH
rain 1hr
in
rain 24hr
in
rain mn
in
humidity
%
barometer
mb
20260831004550 79 103 0.0 0.0 0.00 0.00 0.00 78 1017.0
20260831004050 79 103 0.0 0.0 0.00 0.00 0.00 78 1017.0
20260831003549 80 103 0.0 0.0 0.00 0.00 0.00 78 1017.0
20260831003048 80 103 0.0 0.0 0.00 0.00 0.00 78 1016.9
20260831002548 80 103 0.0 0.0 0.00 0.00 0.00 77 1017.0
20260831002048 81 103 0.0 0.0 0.00 0.00 0.00 76 1016.8
20260831001548 81 102 0.0 0.0 0.00 0.00 0.00 74 1016.8
20260831001048 82 103 0.0 0.0 0.00 0.00 0.00 73 1016.8
20260831000548 82 103 0.0 0.0 0.00 0.00 0.00 72 1016.8
20260831000057 83 103 0.0 0.0 0.00 0.00 0.00 71 1016.9
20260830235546 83 103 0.0 0.0 0.00 0.00 0.00 69 1016.9
20260830235047 83 103 0.0 0.0 0.00 0.00 0.00 69 1016.9
20260830234550 83 103 0.0 0.0 0.00 0.00 0.00 68 1016.9
20260830234046 83 103 0.0 0.0 0.00 0.00 0.00 70 1016.9
20260830233548 84 103 0.0 0.0 0.00 0.00 0.00 67 1016.9
20260830233057 84 103 0.0 0.0 0.00 0.00 0.00 65 1016.9
20260830232545 85 103 0.0 0.0 0.00 0.00 0.00 65 1016.9
20260830232045 86 103 0.0 3.0 0.00 0.00 0.00 63 1016.9
20260830231544 87 102 1.0 3.0 0.00 0.00 0.00 58 1016.9
20260830231044 87 84 1.0 3.0 0.00 0.00 0.00 61 1016.9
20260830230542 87 88 1.0 5.0 0.00 0.00 0.00 62 1016.9
20260830230042 87 90 2.0 5.0 0.00 0.00 0.00 59 1016.8
20260830225546 87 106 1.0 3.0 0.00 0.00 0.00 60 1016.8
20260830225041 87 75 0.0 5.0 0.00 0.00 0.00 62 1016.8
20260830224544 87 99 2.0 5.0 0.00 0.00 0.00 61 1016.8
20260830224039 88 109 2.0 6.0 0.00 0.00 0.00 59 1016.8
20260830223539 88 76 3.0 6.0 0.00 0.00 0.00 60 1016.9
20260830223040 88 111 1.0 4.0 0.00 0.00 0.00 60 1016.8
20260830222540 88 73 1.0 5.0 0.00 0.00 0.00 59 1016.9
20260830222038 89 81 2.0 4.0 0.00 0.00 0.00 57 1016.9
20260830221538 88 115 2.0 4.0 0.00 0.00 0.00 57 1016.9
20260830221037 88 99 2.0 6.0 0.00 0.00 0.00 60 1016.8
20260830220540 89 112 3.0 7.0 0.00 0.00 0.00 60 1017.0
20260830220055 89 72 2.0 7.0 0.00 0.00 0.00 60 1016.9
20260830215537 88 96 2.0 5.0 0.00 0.00 0.00 59 1017.0
20260830215036 89 63 2.0 7.0 0.00 0.00 0.00 60 1017.0
20260830214536 89 99 2.0 7.0 0.00 0.00 0.00 59 1017.0
20260830214036 88 96 1.0 4.0 0.00 0.00 0.00 60 1016.9
20260830213535 88 70 1.0 4.0 0.00 0.00 0.00 59 1017.0
20260830213035 88 68 2.0 4.0 0.00 0.00 0.00 63 1017.0
20260830212537 87 56 2.0 4.0 0.00 0.00 0.00 63 1017.0
20260830212035 87 95 0.0 5.0 0.00 0.00 0.00 65 1017.0
20260830211535 87 107 2.0 5.0 0.00 0.00 0.00 64 1017.1
20260830211035 87 128 1.0 6.0 0.00 0.00 0.00 65 1017.1
20260830210535 87 111 2.0 6.0 0.00 0.00 0.00 64 1017.1
20260830210034 88 109 2.0 9.0 0.00 0.00 0.00 63 1017.2
20260830205534 88 111 5.0 9.0 0.00 0.00 0.00 62 1017.2
20260830205033 88 101 3.0 6.0 0.00 0.00 0.00 63 1017.2
20260830204548 88 67 2.0 5.0 0.00 0.00 0.00 62 1017.1
20260830204033 89 99 1.0 4.0 0.00 0.00 0.00 59 1017.1
20260830203532 89 117 0.0 3.0 0.00 0.00 0.00 62 1017.3
20260830203032 89 44 1.0 3.0 0.00 0.00 0.00 60 1017.3
20260830202532 89 258 0.0 2.0 0.00 0.00 0.00 62 1017.3
20260830202032 89 270 1.0 2.0 0.00 0.00 0.00 59 1017.3
20260830201531 89 309 0.0 2.0 0.00 0.00 0.00 59 1017.3
20260830201031 89 251 1.0 2.0 0.00 0.00 0.00 60 1017.4
20260830200531 89 81 0.0 2.0 0.00 0.00 0.00 61 1017.4
20260830200036 89 311 1.0 2.0 0.00 0.00 0.00 65 1017.5
20260830195528 89 12 0.0 3.0 0.00 0.00 0.00 61 1017.6
20260830195028 89 83 1.0 3.0 0.00 0.00 0.00 60 1017.7
20260830194528 88 276 1.0 3.0 0.00 0.00 0.00 62 1017.7
20260830194028 88 57 0.0 2.0 0.00 0.00 0.00 62 1017.7
20260830193526 88 57 1.0 5.0 0.00 0.00 0.00 61 1017.8
20260830193026 88 89 2.0 5.0 0.00 0.00 0.00 63 1017.9
20260830192525 87 84 1.0 2.0 0.00 0.00 0.00 65 1018.1
20260830192025 88 79 0.0 5.0 0.00 0.00 0.00 63 1018.1
20260830191606 88 79 0.0 5.0 0.00 0.00 0.00 59 1018.2
20260830191023 89 107 1.0 4.0 0.00 0.00 0.00 60 1018.3
20260830190521 88 5 0.0 2.0 0.00 0.00 0.00 60 1018.4
20260830190023 88 298 0.0 4.0 0.00 0.00 0.00 63 1018.4
20260830185519 88 71 2.0 6.0 0.00 0.00 0.00 62 1018.6
20260830185020 88 86 2.0 6.0 0.00 0.00 0.00 62 1018.6
20260830184518 87 76 0.0 5.0 0.00 0.00 0.00 61 1018.6
20260830184018 87 281 0.0 2.0 0.00 0.00 0.00 65 1018.7
20260830183517 88 281 1.0 2.0 0.00 0.00 0.00 62 1018.8
20260830183016 88 284 1.0 2.0 0.00 0.00 0.00 68 1018.9
20260830182519 87 261 0.0 2.0 0.00 0.00 0.00 65 1019.0
20260830182017 87 261 0.0 2.0 0.00 0.00 0.00 65 1019.2
20260830181515 87 225 1.0 3.0 0.00 0.00 0.00 66 1019.1
20260830181015 87 67 0.0 3.0 0.00 0.00 0.00 67 1019.1
20260830180515 87 223 0.0 5.0 0.00 0.00 0.00 64 1019.3
20260830180015 87 97 1.0 5.0 0.00 0.00 0.00 64 1019.4
20260830175514 88 104 2.0 7.0 0.00 0.00 0.00 64 1019.4
20260830175015 87 92 2.0 6.0 0.00 0.00 0.00 66 1019.5
20260830174513 86 237 1.0 3.0 0.00 0.00 0.00 66 1019.6
20260830174013 86 67 1.0 5.0 0.00 0.00 0.00 64 1019.6
20260830173512 87 79 2.0 6.0 0.00 0.00 0.00 65 1019.7
20260830173013 87 94 2.0 6.0 0.00 0.00 0.00 66 1019.7
20260830172514 86 221 1.0 4.0 0.00 0.00 0.00 70 1019.8
20260830172010 85 97 1.0 4.0 0.00 0.00 0.00 68 1019.8
20260830171510 84 276 0.0 2.0 0.00 0.00 0.00 73 1020.0
20260830171010 85 276 0.0 3.0 0.00 0.00 0.00 70 1020.1
20260830170510 85 292 0.0 3.0 0.00 0.00 0.00 69 1020.2
20260830170008 84 229 0.0 3.0 0.00 0.00 0.00 71 1020.3
20260830165508 85 229 1.0 4.0 0.00 0.00 0.00 70 1020.3
20260830165012 84 222 1.0 5.0 0.00 0.00 0.00 73 1020.4
20260830164509 84 93 2.0 5.0 0.00 0.00 0.00 71 1020.5
20260830164009 84 247 0.0 3.0 0.00 0.00 0.00 72 1020.5
20260830163508 85 271 2.0 3.0 0.00 0.00 0.00 71 1020.5
20260830163018 85 242 1.0 2.0 0.00 0.00 0.00 72 1020.5
20260830162506 85 129 0.0 3.0 0.00 0.00 0.00 73 1020.5
20260830162006 85 232 1.0 5.0 0.00 0.00 0.00 73 1020.6
20260830161505 85 77 1.0 6.0 0.00 0.00 0.00 72 1020.7
20260830161007 84 90 2.0 6.0 0.00 0.00 0.00 72 1020.6
20260830160503 84 223 1.0 6.0 0.00 0.00 0.00 74 1020.7
20260830160002 83 186 0.0 6.0 0.00 0.00 0.00 74 1020.7
20260830155501 83 266 1.0 3.0 0.00 0.00 0.00 76 1020.7
20260830155004 82 134 0.0 2.0 0.00 0.00 0.00 79 1020.8
20260830154608 82 238 0.0 2.0 0.00 0.00 0.00 78 1020.8
20260830154500 82 238 0.0 3.0 0.00 0.00 0.00 78 1020.8
20260830154101 82 238 0.0 4.0 0.00 0.00 0.00 77 1020.8
20260830153600 83 263 1.0 4.0 0.00 0.00 0.00 78 1020.8
20260830153102 82 99 0.0 2.0 0.00 0.00 0.00 79 1020.8
20260830152558 82 69 0.0 2.0 0.00 0.00 0.00 79 1020.8
20260830152058 80 138 0.0 1.0 0.00 0.00 0.00 81 1020.9
20260830151558 81 138 0.0 2.0 0.00 0.00 0.00 80 1020.9
20260830151058 81 136 0.0 4.0 0.00 0.00 0.00 79 1020.9
20260830150600 82 193 2.0 4.0 0.00 0.00 0.00 79 1020.9
20260830150057 81 196 0.0 2.0 0.00 0.00 0.00 80 1021.0
20260830145555 80 217 0.0 2.0 0.00 0.00 0.00 80 1020.9
20260830145057 80 202 0.0 2.0 0.00 0.00 0.00 81 1020.9
20260830144605 80 221 0.0 1.0 0.00 0.00 0.00 82 1020.9
20260830144051 80 241 0.0 1.0 0.00 0.00 0.00 83 1021.0
20260830143551 80 59 0.0 3.0 0.00 0.00 0.00 83 1020.9
20260830143051 80 57 0.0 3.0 0.00 0.00 0.00 83 1020.9
20260830142551 79 227 0.0 1.0 0.00 0.00 0.00 83 1020.9
20260830142050 79 227 0.0 1.0 0.00 0.00 0.00 84 1020.9
20260830141550 79 223 0.0 1.0 0.00 0.00 0.00 84 1020.9
20260830141048 79 66 0.0 1.0 0.00 0.00 0.00 85 1020.9
20260830140548 78 66 0.0 1.0 0.00 0.00 0.00 87 1020.9
20260830140049 78 66 0.0 1.0 0.00 0.00 0.00 87 1020.9
20260830135545 78 66 0.0 1.0 0.00 0.00 0.00 88 1020.9
20260830135043 77 66 0.0 0.0 0.00 0.00 0.00 92 1020.9
20260830134542 76 66 0.0 1.0 0.00 0.00 0.00 95 1020.8
20260830134040 74 66 0.0 1.0 0.00 0.00 0.00 97 1020.8
20260830133539 74 66 0.0 1.0 0.00 0.00 0.00 97 1020.8
20260830133049 74 66 0.0 0.0 0.00 0.00 0.00 97 1020.9
20260830132542 73 66 0.0 1.0 0.00 0.00 0.00 97 1020.9
20260830132040 73 66 0.0 1.0 0.00 0.00 0.00 97 1020.9
20260830131551 73 66 0.0 1.0 0.00 0.00 0.00 97 1020.8
20260830131037 73 66 0.0 0.0 0.00 0.00 0.00 97 1020.8
20260830130536 72 66 0.0 0.0 0.00 0.00 0.00 97 1020.7
20260830130049 72 66 0.0 0.0 0.00 0.00 0.00 97 1020.7
20260830125534 72 66 0.0 0.0 0.00 0.00 0.00 97 1020.6
20260830125034 72 66 0.0 0.0 0.00 0.00 0.00 97 1020.6
20260830124534 71 66 0.0 0.0 0.00 0.00 0.00 97 1020.6
20260830124033 71 66 0.0 0.0 0.00 0.00 0.00 96 1020.4
20260830123533 71 66 0.0 0.0 0.00 0.00 0.00 96 1020.5
20260830123033 71 66 0.0 0.0 0.00 0.00 0.00 96 1020.4
20260830122533 71 66 0.0 0.0 0.00 0.00 0.00 96 1020.5
20260830122032 71 66 0.0 0.0 0.00 0.00 0.00 96 1020.4
20260830121531 70 66 0.0 0.0 0.00 0.00 0.00 96 1020.3
20260830121030 70 66 0.0 0.0 0.00 0.00 0.00 96 1020.2
20260830120530 70 66 0.0 0.0 0.00 0.00 0.00 96 1020.2
20260830120035 70 66 0.0 0.0 0.00 0.00 0.00 96 1019.9
20260830115529 70 66 0.0 0.0 0.00 0.00 0.00 96 1020.0
20260830115030 70 66 0.0 0.0 0.00 0.00 0.00 96 1020.1
20260830114532 70 66 0.0 0.0 0.00 0.00 0.00 96 1020.1
20260830114028 70 66 0.0 0.0 0.00 0.00 0.00 96 1020.0
20260830113529 70 66 0.0 0.0 0.00 0.00 0.00 96 1019.9
20260830113027 70 66 0.0 0.0 0.00 0.00 0.00 96 1019.8
20260830112527 70 66 0.0 0.0 0.00 0.00 0.00 96 1019.8
20260830112025 70 66 0.0 0.0 0.00 0.00 0.00 96 1019.7
20260830111530 70 66 0.0 0.0 0.00 0.00 0.00 95 1019.6
20260830111025 70 66 0.0 0.0 0.00 0.00 0.00 95 1019.6
20260830110524 70 66 0.0 0.0 0.00 0.00 0.00 95 1019.6
20260830110024 70 66 0.0 0.0 0.00 0.00 0.00 95 1019.5
20260830105523 70 66 0.0 0.0 0.00 0.00 0.00 95 1019.5
20260830105022 70 66 0.0 0.0 0.00 0.00 0.00 95 1019.5
20260830104526 70 66 0.0 0.0 0.00 0.00 0.00 96 1019.4
20260830104021 70 66 0.0 0.0 0.00 0.00 0.00 95 1019.4
20260830103521 70 66 0.0 0.0 0.00 0.00 0.00 95 1019.4
20260830103023 70 66 0.0 0.0 0.00 0.00 0.00 95 1019.4
20260830102519 70 66 0.0 1.0 0.00 0.00 0.00 95 1019.4
20260830102027 70 66 0.0 1.0 0.00 0.00 0.00 95 1019.4
20260830101519 70 66 0.0 0.0 0.00 0.00 0.00 95 1019.4
20260830101022 70 66 0.0 0.0 0.00 0.00 0.00 95 1019.4
20260830100518 70 66 0.0 0.0 0.00 0.00 0.00 95 1019.3
20260830100018 70 66 0.0 0.0 0.00 0.00 0.00 95 1019.2
20260830095517 70 66 0.0 0.0 0.00 0.00 0.00 95 1019.2
20260830095017 70 66 0.0 0.0 0.00 0.00 0.00 95 1019.2
20260830094520 70 66 0.0 0.0 0.00 0.00 0.00 95 1019.3
20260830094016 70 66 0.0 0.0 0.00 0.00 0.00 95 1019.2
20260830093516 70 66 0.0 1.0 0.00 0.00 0.00 95 1019.3
20260830093028 70 66 0.0 2.0 0.00 0.00 0.00 95 1019.3
20260830092517 70 66 0.0 2.0 0.00 0.00 0.00 95 1019.3
20260830092014 70 66 0.0 2.0 0.00 0.00 0.00 95 1019.2
20260830091520 70 66 0.0 0.0 0.00 0.00 0.00 95 1019.2
20260830091014 71 66 0.0 0.0 0.00 0.00 0.00 95 1019.2
20260830090513 71 66 0.0 0.0 0.00 0.00 0.00 95 1019.2
20260830090014 71 66 0.0 0.0 0.00 0.00 0.00 95 1019.1
20260830085513 71 66 0.0 0.0 0.00 0.00 0.00 95 1019.1
20260830085016 71 66 0.0 0.0 0.00 0.00 0.00 95 1019.1
20260830084515 71 66 0.0 0.0 0.00 0.00 0.00 95 1019.1
20260830084013 71 66 0.0 0.0 0.00 0.00 0.00 95 1019.1
20260830083512 71 66 0.0 0.0 0.00 0.00 0.00 95 1019.0
20260830083013 71 66 0.0 0.0 0.00 0.00 0.00 95 1019.0
20260830082511 71 66 0.0 0.0 0.00 0.00 0.00 95 1019.0
20260830082011 71 66 0.0 1.0 0.00 0.00 0.00 95 1019.0
20260830081528 71 66 0.0 1.0 0.00 0.00 0.00 95 1019.0
20260830081011 71 66 0.0 1.0 0.00 0.00 0.00 95 1019.0
20260830080513 71 66 0.0 1.0 0.00 0.00 0.00 95 1019.0
20260830080010 71 66 0.0 0.0 0.00 0.00 0.00 95 1018.9
20260830075510 71 66 0.0 2.0 0.00 0.00 0.00 95 1018.9
20260830075010 71 66 0.0 2.0 0.00 0.00 0.00 95 1018.9
20260830074519 71 66 0.0 0.0 0.00 0.00 0.00 95 1018.9
20260830074009 71 66 0.0 0.0 0.00 0.00 0.00 95 1018.9
20260830073509 71 66 0.0 0.0 0.00 0.00 0.00 95 1019.0
20260830073009 71 66 0.0 0.0 0.00 0.00 0.00 95 1018.9
20260830072509 71 66 0.0 0.0 0.00 0.00 0.00 95 1018.9
20260830072015 71 66 0.0 0.0 0.00 0.00 0.00 95 1018.8
20260830071508 71 66 0.0 0.0 0.00 0.00 0.00 95 1018.9
20260830071007 71 66 0.0 0.0 0.00 0.00 0.00 95 1018.9
20260830070509 71 66 0.0 1.0 0.00 0.00 0.00 95 1018.7
20260830070007 71 66 0.0 1.0 0.00 0.00 0.00 95 1018.7
20260830065506 72 66 0.0 1.0 0.00 0.00 0.00 95 1018.8
20260830065007 72 66 0.0 2.0 0.00 0.00 0.00 95 1018.8
20260830064508 72 66 0.0 1.0 0.00 0.00 0.00 95 1018.9
20260830064005 72 66 0.0 0.0 0.00 0.00 0.00 95 1018.9
20260830063505 72 66 0.0 0.0 0.00 0.00 0.00 95 1019.0
20260830063005 72 66 0.0 0.0 0.00 0.00 0.00 95 1019.0
20260830062504 72 66 0.0 0.0 0.00 0.00 0.00 95 1019.0
20260830062005 72 66 0.0 0.0 0.00 0.00 0.00 95 1019.0
20260830061508 72 66 0.0 0.0 0.00 0.00 0.00 95 1019.0
20260830061003 72 66 0.0 0.0 0.00 0.00 0.00 94 1019.0
20260830060503 72 66 0.0 0.0 0.00 0.00 0.00 94 1019.1
20260830060003 72 66 0.0 0.0 0.00 0.00 0.00 94 1019.0
20260830055501 72 66 0.0 0.0 0.00 0.00 0.00 94 1019.0
20260830055002 72 66 0.0 0.0 0.00 0.00 0.00 94 1019.0
20260830054501 72 66 0.0 0.0 0.00 0.00 0.00 94 1019.0
20260830054002 72 66 0.0 1.0 0.00 0.00 0.00 94 1019.0
20260830053501 72 66 0.0 1.0 0.00 0.00 0.00 94 1019.1
20260830053001 72 66 0.0 1.0 0.00 0.00 0.00 94 1019.1
20260830052502 72 66 0.0 1.0 0.00 0.00 0.00 94 1019.2
20260830052001 72 66 0.0 1.0 0.00 0.00 0.00 94 1019.1
20260830051501 72 66 0.0 2.0 0.00 0.00 0.00 94 1019.2
20260830051002 72 66 0.0 2.0 0.00 0.00 0.00 94 1019.2
20260830050601 72 66 0.0 2.0 0.00 0.00 0.00 94 1019.2
20260830050100 72 66 0.0 0.0 0.00 0.00 0.00 94 1019.2
20260830045559 72 66 0.0 0.0 0.00 0.00 0.00 94 1019.1
20260830045058 72 66 0.0 0.0 0.00 0.00 0.00 94 1019.1
20260830044611 72 66 0.0 0.0 0.00 0.00 0.00 93 1019.0
20260830044057 73 66 0.0 0.0 0.00 0.00 0.00 93 1019.0
20260830043559 73 66 0.0 0.0 0.00 0.00 0.00 93 1019.1
20260830043057 73 66 0.0 0.0 0.00 0.00 0.00 93 1019.1
20260830042556 73 66 0.0 0.0 0.00 0.00 0.00 92 1019.1
20260830042055 73 66 0.0 0.0 0.00 0.00 0.00 92 1019.1
20260830041604 73 66 0.0 0.0 0.00 0.00 0.00 92 1019.0
20260830041057 73 66 0.0 0.0 0.00 0.00 0.00 92 1019.1
20260830040555 73 66 0.0 0.0 0.00 0.00 0.00 92 1019.2
20260830040055 73 66 0.0 0.0 0.00 0.00 0.00 92 1019.2
20260830035552 73 66 0.0 1.0 0.00 0.00 0.00 92 1019.2
20260830035052 73 66 0.0 1.0 0.00 0.00 0.00 91 1019.2
20260830034552 74 66 0.0 0.0 0.00 0.00 0.00 91 1019.2
20260830034052 74 66 0.0 0.0 0.00 0.00 0.00 91 1019.2
20260830033557 74 66 0.0 0.0 0.00 0.00 0.00 91 1019.3
20260830033052 74 66 0.0 0.0 0.00 0.00 0.00 90 1019.3
20260830032551 74 66 0.0 1.0 0.00 0.00 0.00 90 1019.2
20260830032053 75 66 0.0 1.0 0.00 0.00 0.00 90 1019.1
20260830031551 75 66 0.0 0.0 0.00 0.00 0.00 90 1019.1
20260830031051 75 66 0.0 0.0 0.00 0.00 0.00 90 1019.1
20260830030552 75 66 0.0 0.0 0.00 0.00 0.00 89 1019.0
20260830030051 75 66 0.0 0.0 0.00 0.00 0.00 89 1019.0
20260830025550 75 66 0.0 0.0 0.00 0.00 0.00 88 1019.0
20260830025051 76 66 0.0 0.0 0.00 0.00 0.00 89 1019.0
20260830024602 76 66 0.0 1.0 0.00 0.00 0.00 88 1018.8
20260830024050 76 66 0.0 0.0 0.00 0.00 0.00 87 1018.7
20260830023553 77 66 0.0 0.0 0.00 0.00 0.00 87 1018.7
20260830023109 77 66 0.0 0.0 0.00 0.00 0.00 87 1018.6
20260830022553 77 66 0.0 0.0 0.00 0.00 0.00 86 1018.5
20260830022050 77 66 0.0 0.0 0.00 0.00 0.00 85 1018.4
20260830021550 77 66 0.0 0.0 0.00 0.00 0.00 84 1018.4
20260830021054 77 66 0.0 0.0 0.00 0.00 0.00 83 1018.4
20260830020550 78 66 0.0 0.0 0.00 0.00 0.00 83 1018.2
20260830020053 78 66 0.0 0.0 0.00 0.00 0.00 83 1018.2
20260830015548 78 66 0.0 0.0 0.00 0.00 0.00 82 1018.1
20260830015048 78 66 0.0 0.0 0.00 0.00 0.00 81 1018.0
20260830014548 79 66 0.0 0.0 0.00 0.00 0.00 80 1017.9
20260830014048 79 66 0.0 0.0 0.00 0.00 0.00 80 1017.7
20260830013548 78 66 0.0 0.0 0.00 0.00 0.00 81 1017.6
20260830013050 78 66 0.0 0.0 0.00 0.00 0.00 82 1017.6
20260830012551 79 66 0.0 0.0 0.00 0.00 0.00 82 1017.5
20260830012049 79 66 0.0 0.0 0.00 0.00 0.00 82 1017.4
20260830011601 79 66 0.0 0.0 0.00 0.00 0.00 82 1017.3
20260830011047 79 66 0.0 0.0 0.00 0.00 0.00 81 1017.2
20260830010550 79 66 0.0 0.0 0.00 0.00 0.00 80 1017.1
20260830010050 79 66 0.0 0.0 0.00 0.00 0.00 80 1017.1
20260830005546 79 66 0.0 0.0 0.00 0.00 0.00 80 1017.0
20260830005047 80 66 0.0 0.0 0.00 0.00 0.00 80 1017.0